Hourly Weather Salvador

Today, 13 July, Monday

Time Temperature Precipitation Wind Pressure Humidity
00:00 +24°C° 0.4 mm 2 mps 759 mmHg 88%
01:00 +24°C° 0.7 mm 2 mps 758 mmHg 89%
02:00 +24°C° 0.7 mm 2 mps 758 mmHg 90%
03:00 +24°C° 0 mm 2 mps 758 mmHg 91%
04:00 +24°C° 0.8 mm 2 mps 758 mmHg 91%
05:00 +24°C° 0.8 mm 2 mps 758 mmHg 91%
06:00 +24°C° 0.8 mm 2 mps 758 mmHg 91%
07:00 +24°C° 0.6 mm 3 mps 759 mmHg 90%
08:00 +25°C° 0.6 mm 3 mps 759 mmHg 88%
09:00 +26°C° 0.6 mm 3 mps 759 mmHg 87%
10:00 +27°C° 0.1 mm 3 mps 759 mmHg 81%
11:00 +28°C° 0.1 mm 3 mps 759 mmHg 74%
12:00 +29°C° 0.1 mm 3 mps 759 mmHg 68%
13:00 +28°C° 0 mm 3 mps 759 mmHg 68%
14:00 +28°C° 0 mm 3 mps 758 mmHg 69%
15:00 +28°C° 0 mm 4 mps 758 mmHg 70%
16:00 +27°C° 0 mm 4 mps 758 mmHg 73%
17:00 +26°C° 0 mm 4 mps 758 mmHg 76%
18:00 +26°C° 0 mm 4 mps 758 mmHg 79%
19:00 +26°C° 0 mm 4 mps 758 mmHg 80%
20:00 +25°C° 0 mm 4 mps 759 mmHg 81%
21:00 +25°C° 0 mm 4 mps 759 mmHg 81%
22:00 +25°C° 0.1 mm 4 mps 759 mmHg 83%
23:00 +25°C° 0.1 mm 4 mps 759 mmHg 84%

Tomorrow, 14 July, Tuesday

Time Temperature Precipitation Wind Pressure Humidity
00:00 +25°C° 0.1 mm 4 mps 759 mmHg 85%
01:00 +25°C° 0.5 mm 4 mps 758 mmHg 85%
02:00 +23°C° 0.5 mm 4 mps 758 mmHg 86%
03:00 +23°C° 0.5 mm 4 mps 758 mmHg 86%
04:00 +24°C° 0.8 mm 3 mps 758 mmHg 87%
05:00 +24°C° 0.8 mm 3 mps 758 mmHg 89%
06:00 +24°C° 0.8 mm 3 mps 758 mmHg 90%
07:00 +24°C° 0.4 mm 3 mps 758 mmHg 88%
08:00 +25°C° 0.4 mm 3 mps 759 mmHg 86%
09:00 +25°C° 0.4 mm 3 mps 759 mmHg 84%
10:00 +26°C° 0.5 mm 3 mps 759 mmHg 83%
11:00 +26°C° 0.5 mm 3 mps 759 mmHg 82%
12:00 +27°C° 0.5 mm 3 mps 758 mmHg 81%
13:00 +27°C° 0.3 mm 3 mps 758 mmHg 81%
14:00 +27°C° 0.3 mm 2 mps 757 mmHg 81%
15:00 +27°C° 0.3 mm 2 mps 757 mmHg 81%
16:00 +26°C° 0.2 mm 2 mps 757 mmHg 82%
17:00 +26°C° 0.2 mm 2 mps 758 mmHg 83%
18:00 +25°C° 0.2 mm 3 mps 758 mmHg 84%
19:00 +25°C° 0.5 mm 3 mps 758 mmHg 85%
20:00 +25°C° 0.5 mm 2 mps 759 mmHg 85%
21:00 +25°C° 0.5 mm 2 mps 759 mmHg 86%
22:00 +24°C° 0.8 mm 2 mps 759 mmHg 87%
23:00 +24°C° 0.8 mm 2 mps 759 mmHg 88%

Day after tomorrow, 15 July, Wednesday

Time Temperature Precipitation Wind Pressure Humidity
00:00 +24°C° 0.8 mm 2 mps 759 mmHg 89%
01:00 +24°C° 0.5 mm 1 mps 759 mmHg 89%
02:00 +24°C° 0.5 mm 1 mps 758 mmHg 89%
03:00 +24°C° 0.5 mm 1 mps 758 mmHg 90%
04:00 +23°C° 0.3 mm 1 mps 758 mmHg 90%
05:00 +23°C° 0.3 mm 1 mps 758 mmHg 90%
06:00 +23°C° 0.3 mm 1 mps 758 mmHg 90%
07:00 +24°C° 0 mm 1 mps 759 mmHg 86%
08:00 +25°C° 0 mm 1 mps 759 mmHg 83%
09:00 +26°C° 0 mm 1 mps 760 mmHg 79%
10:00 +27°C° 0 mm 2 mps 759 mmHg 75%
11:00 +28°C° 0 mm 3 mps 759 mmHg 72%
12:00 +28°C° 0 mm 3 mps 759 mmHg 69%
13:00 +28°C° 0.1 mm 4 mps 758 mmHg 71%
14:00 +28°C° 0.1 mm 5 mps 758 mmHg 73%
15:00 +27°C° 0.1 mm 5 mps 758 mmHg 74%
16:00 +27°C° 0.2 mm 5 mps 758 mmHg 76%
17:00 +26°C° 0.2 mm 5 mps 758 mmHg 78%
18:00 +26°C° 0.2 mm 5 mps 758 mmHg 79%
19:00 +26°C° 0.2 mm 6 mps 759 mmHg 81%
20:00 +24°C° 0.2 mm 6 mps 759 mmHg 82%
21:00 +24°C° 0.2 mm 6 mps 760 mmHg 83%
22:00 +24°C° 0.1 mm 6 mps 760 mmHg 83%
23:00 +24°C° 0.1 mm 6 mps 760 mmHg 83%

16 July, Thursday

Time Temperature Precipitation Wind Pressure Humidity
00:00 +24°C° 0.1 mm 7 mps 760 mmHg 83%
01:00 +24°C° 0 mm 6 mps 760 mmHg 83%
02:00 +24°C° 0 mm 6 mps 759 mmHg 83%
03:00 +23°C° 0 mm 6 mps 759 mmHg 83%
04:00 +23°C° 0.2 mm 7 mps 759 mmHg 85%
05:00 +23°C° 0.2 mm 7 mps 759 mmHg 86%
06:00 +23°C° 0.2 mm 7 mps 759 mmHg 87%
07:00 +23°C° 0.8 mm 7 mps 760 mmHg 86%
08:00 +24°C° 0.8 mm 7 mps 760 mmHg 86%
09:00 +24°C° 0.8 mm 7 mps 761 mmHg 85%
10:00 +26°C° 0.9 mm 7 mps 761 mmHg 84%
11:00 +26°C° 0.9 mm 6 mps 760 mmHg 82%
12:00 +26°C° 0.9 mm 6 mps 760 mmHg 81%
13:00 +26°C° 0.7 mm 6 mps 760 mmHg 81%
14:00 +26°C° 0.7 mm 6 mps 759 mmHg 81%
15:00 +26°C° 0.7 mm 6 mps 759 mmHg 81%
16:00 +26°C° 0.9 mm 6 mps 759 mmHg 83%
17:00 +24°C° 0.9 mm 6 mps 759 mmHg 85%
18:00 +24°C° 0.9 mm 6 mps 759 mmHg 86%
19:00 +24°C° 1.2 mm 7 mps 760 mmHg 86%
20:00 +24°C° 1.2 mm 7 mps 760 mmHg 87%
21:00 +24°C° 1.2 mm 7 mps 760 mmHg 87%
22:00 +24°C° 1.3 mm 8 mps 760 mmHg 87%
23:00 +24°C° 1.3 mm 8 mps 760 mmHg 87%

17 July, Friday

Time Temperature Precipitation Wind Pressure Humidity
00:00 +24°C° 1.3 mm 8 mps 760 mmHg 87%
01:00 +24°C° 1 mm 8 mps 760 mmHg 87%
02:00 +24°C° 1 mm 8 mps 759 mmHg 87%
03:00 +24°C° 1 mm 8 mps 759 mmHg 86%
04:00 +23°C° 1.6 mm 8 mps 759 mmHg 88%
05:00 +23°C° 1.6 mm 7 mps 759 mmHg 90%
06:00 +23°C° 1.6 mm 7 mps 759 mmHg 92%
07:00 +23°C° 2.1 mm 7 mps 760 mmHg 91%
08:00 +23°C° 2.1 mm 8 mps 760 mmHg 90%
09:00 +23°C° 2.1 mm 8 mps 761 mmHg 89%
10:00 +23°C° 1.6 mm 8 mps 760 mmHg 89%
11:00 +23°C° 1.6 mm 8 mps 760 mmHg 89%
12:00 +23°C° 1.6 mm 8 mps 760 mmHg 90%
13:00 +23°C° 1.3 mm 8 mps 760 mmHg 89%
14:00 +23°C° 1.3 mm 8 mps 759 mmHg 88%
15:00 +24°C° 1.3 mm 8 mps 759 mmHg 87%
16:00 +23°C° 1.3 mm 8 mps 759 mmHg 88%
17:00 +23°C° 1.3 mm 8 mps 759 mmHg 89%
18:00 +23°C° 1.3 mm 7 mps 760 mmHg 90%
19:00 +23°C° 2.1 mm 7 mps 760 mmHg 90%
20:00 +23°C° 2.1 mm 7 mps 760 mmHg 90%
21:00 +23°C° 2.1 mm 7 mps 760 mmHg 90%
22:00 +23°C° 1.9 mm 6 mps 760 mmHg 90%
23:00 +23°C° 1.9 mm 6 mps 760 mmHg 89%

18 July, Saturday

Time Temperature Precipitation Wind Pressure Humidity
00:00 +23°C° 1.9 mm 5 mps 760 mmHg 88%
01:00 +23°C° 1.7 mm 5 mps 759 mmHg 89%
02:00 +23°C° 1.7 mm 5 mps 759 mmHg 89%
03:00 +23°C° 1.7 mm 5 mps 759 mmHg 90%
04:00 +23°C° 1.6 mm 5 mps 759 mmHg 89%
05:00 +23°C° 1.6 mm 5 mps 759 mmHg 89%
06:00 +23°C° 1.6 mm 4 mps 759 mmHg 89%
07:00 +25°C° 0.7 mm 4 mps 760 mmHg 87%
08:00 +25°C° 0.7 mm 5 mps 760 mmHg 84%
09:00 +26°C° 0.7 mm 5 mps 761 mmHg 82%
10:00 +26°C° 0.3 mm 4 mps 760 mmHg 82%
11:00 +25°C° 0.3 mm 4 mps 760 mmHg 82%
12:00 +25°C° 0.3 mm 4 mps 760 mmHg 83%
13:00 +25°C° 0.4 mm 4 mps 760 mmHg 83%
14:00 +25°C° 0.4 mm 4 mps 759 mmHg 83%
15:00 +25°C° 0.4 mm 4 mps 759 mmHg 84%
16:00 +25°C° 0.3 mm 4 mps 759 mmHg 84%
17:00 +25°C° 0.3 mm 4 mps 759 mmHg 83%
18:00 +25°C° 0.3 mm 4 mps 759 mmHg 83%
19:00 +25°C° 0 mm 5 mps 760 mmHg 82%
20:00 +25°C° 0 mm 5 mps 760 mmHg 82%
21:00 +25°C° 0 mm 5 mps 760 mmHg 81%
22:00 +24°C° 0.1 mm 6 mps 760 mmHg 82%
23:00 +24°C° 0.1 mm 6 mps 760 mmHg 82%
Show more